Find Starlink 32012

NORAD ID: 60027 Int'l Des: 2024-111 Owner: SPXS Country: US Constellation: starlink operational
LEOCIRCULAR

实时位置

正在加载3D地球...

关于 Starlink 32012

正在加载描述...

即将过境

Passes for default location (London). Set your location on the main map for personalized predictions.

高度历史

Loading altitude history...

两行轨道根数

1 60027U 24111M 26126.41526295 -.00000592 00000-0 -78588-5 0 9994
2 60027 53.1598 167.3408 0001146 86.3146 273.7986 15.30187882107875
Epoch: May 6, 2026 • Age: 24 hours

当前状态

高度 477.3 km
速度 7.63 km/s
星下点 34.96°N, 64.95°W
发射日期 Jun 8, 2024
运行时间 1.9 years
类型 internet

技术详情

分类 Payload
质量 730.00 kg
干质量 700.00 kg
总质量 730.00 kg
长度 0.30 m
直径 4.10 m
跨度 29.00 m
形状 Box + pan
制造商 SPXS
平台类型 Starlink V2M
阶段状态 In Orbit
所有者/国家 SPXS/US

Most Searched